FW8563 Weather Reports


Display with metric or nautical units.
time (UTC)temp
F
wind
direction
speed
MPH
gust
MPH
rain 1hr
in
rain 24hr
in
rain mn
in
humidity
%
barometer
mb
20260506072410 53 102 3.0 10.0 0.00 0.21 0.06 99 1014.6
20260506071908 52 165 3.0 10.0 0.00 0.21 0.06 99 1014.6
20260506071408 52 152 3.0 11.0 0.00 0.21 0.06 99 1014.6
20260506070909 52 114 4.0 11.0 0.00 0.21 0.06 99 1014.5
20260506070406 52 151 4.0 10.0 0.00 0.21 0.06 99 1014.7
20260506061403 52 211 4.0 12.0 0.02 0.21 0.06 99 1014.7
20260506060900 52 162 3.0 10.0 0.02 0.21 0.06 99 1014.7
20260506060400 52 158 4.0 10.0 0.02 0.21 0.06 99 1014.8
20260506051301 53 207 4.0 12.0 0.01 0.25 0.03 99 1014.7
20260506050552 53 150 4.0 12.0 0.00 0.27 0.02 99 1014.6
20260506035324 53 159 4.0 12.0 0.01 0.35 0.02 99 1014.5
20260506034824 53 161 4.0 12.0 0.00 0.35 0.02 99 1014.6
20260506034318 52 264 4.0 12.0 0.00 0.35 0.02 99 1014.4
20260506033811 52 217 5.0 13.0 0.00 0.35 0.02 99 1014.5
20260506032310 53 127 4.0 13.0 0.00 0.38 0.02 99 1014.5
20260506031807 53 241 4.0 11.0 0.00 0.39 0.02 99 1014.5
20260506031310 53 231 4.0 12.0 0.00 0.39 0.02 99 1014.5
20260506030818 53 148 5.0 14.0 0.00 0.39 0.02 99 1014.6
20260506030305 53 80 6.0 15.0 0.00 0.40 0.02 99 1014.6
20260506025805 53 164 6.0 15.0 0.00 0.40 0.02 99 1014.6
20260506025307 53 159 6.0 15.0 0.00 0.41 0.02 99 1014.7
20260506024808 53 152 5.0 14.0 0.00 0.41 0.02 99 1014.7
20260506024308 53 182 4.0 14.0 0.00 0.41 0.02 99 1014.8
20260506023808 53 183 4.0 10.0 0.00 0.41 0.02 99 1014.9
20260506023306 54 145 3.0 10.0 0.00 0.41 0.02 99 1015.0
20260506022804 54 117 3.0 11.0 0.00 0.42 0.02 99 1015.0
20260506022305 54 122 4.0 12.0 0.00 0.42 0.02 99 1015.1
20260506021804 53 240 4.0 14.0 0.01 0.42 0.02 99 1015.1
20260506021303 54 139 4.0 14.0 0.02 0.42 0.02 99 1015.1
20260506020302 54 131 4.0 11.0 0.02 0.42 0.02 99 1015.3
20260506015802 54 253 4.0 14.0 0.02 0.42 0.02 99 1015.3
20260506015306 54 161 4.0 14.0 0.02 0.42 0.02 99 1015.4
20260506014802 54 162 4.0 12.0 0.02 0.42 0.02 99 1015.4
20260506014305 54 193 6.0 16.0 0.02 0.42 0.02 99 1015.4
20260506013304 54 201 5.0 13.0 0.02 0.42 0.02 99 1015.5
20260506012804 54 137 5.0 13.0 0.02 0.42 0.02 99 1015.4
20260506012308 54 186 5.0 13.0 0.02 0.42 0.02 99 1015.4
20260506011804 54 150 5.0 13.0 0.01 0.42 0.01 99 1015.3
20260506011302 54 128 5.0 12.0 0.00 0.41 0.00 99 1015.4
20260506010804 54 140 4.0 11.0 0.00 0.41 0.00 99 1015.3
20260506010304 54 236 4.0 10.0 0.00 0.41 0.00 99 1015.4
20260506005802 54 149 3.0 9.0 0.00 0.41 0.00 99 1015.4
20260506005305 54 193 3.0 10.0 0.00 0.41 0.00 99 1015.4
20260506004800 54 187 3.0 10.0 0.00 0.41 0.00 99 1015.4
20260506004259 54 139 2.0 9.0 0.00 0.41 0.00 99 1015.4
20260506003800 54 234 2.0 7.0 0.00 0.41 0.00 99 1015.5
20260506002759 54 217 2.0 7.0 0.00 0.41 0.00 99 1015.5
20260506002259 54 163 2.0 7.0 0.00 0.41 0.00 99 1015.5
20260506001802 54 166 2.0 7.0 0.00 0.41 0.00 99 1015.5
20260506001303 55 220 2.0 8.0 0.00 0.41 0.00 99 1015.5
20260506000801 54 148 2.0 8.0 0.00 0.41 0.00 99 1015.6
20260505235800 54 155 3.0 10.0 0.00 0.41 0.00 99 1015.7
20260505234759 54 217 3.0 9.0 0.00 0.41 0.00 99 1015.7
20260505234258 54 139 3.0 10.0 0.00 0.41 0.00 99 1015.7
20260505233755 54 229 4.0 12.0 0.00 0.41 0.00 99 1015.7
20260505233252 54 141 4.0 12.0 0.00 0.41 0.00 99 1015.8
20260505232745 54 143 3.0 10.0 0.00 0.41 0.00 99 1015.8
20260505232240 54 141 3.0 11.0 0.00 0.41 0.00 99 1015.8
20260505231740 54 122 3.0 11.0 0.00 0.41 0.00 99 1015.8
20260505231235 54 122 3.0 11.0 0.00 0.41 0.00 99 1015.9
20260505230233 54 159 2.0 10.0 0.00 0.41 0.00 99 1016.0
20260505225734 54 129 3.0 10.0 0.00 0.41 0.00 99 1016.2
20260505225234 54 157 3.0 10.0 0.00 0.41 0.00 99 1016.2
20260505224735 54 136 4.0 13.0 0.00 0.41 0.00 99 1016.4
20260505224233 54 150 4.0 13.0 0.00 0.41 0.00 98 1016.4
20260505223733 54 147 4.0 10.0 0.00 0.41 0.00 99 1016.2
20260505223233 54 156 3.0 10.0 0.00 0.41 0.00 99 1016.4
20260505222736 54 124 3.0 10.0 0.00 0.41 0.00 98 1016.5
20260505222234 55 141 3.0 12.0 0.00 0.41 0.00 98 1016.5
20260505221727 55 207 2.0 12.0 0.00 0.41 0.00 99 1016.5
20260505221229 55 91 2.0 6.0 0.00 0.41 0.00 99 1016.5
20260505220230 55 210 2.0 7.0 0.00 0.41 0.00 98 1016.7
20260505215726 55 167 3.0 11.0 0.00 0.41 0.41 98 1016.8
20260505215227 55 144 3.0 11.0 0.00 0.41 0.41 98 1016.7
20260505214727 55 150 3.0 8.0 0.00 0.41 0.41 98 1016.8
20260505214228 55 203 3.0 8.0 0.00 0.41 0.41 98 1016.8
20260505213725 55 252 3.0 10.0 0.00 0.41 0.41 98 1016.9
20260505212720 55 167 4.0 10.0 0.00 0.41 0.41 98 1016.9
20260505212219 55 140 4.0 9.0 0.00 0.41 0.41 98 1016.9
20260505211720 55 186 4.0 13.0 0.00 0.41 0.41 98 1016.9
20260505211221 55 135 5.0 14.0 0.00 0.41 0.41 98 1017.0
20260505210718 55 140 5.0 14.0 0.00 0.41 0.41 98 1017.1
20260505210217 55 206 5.0 12.0 0.00 0.41 0.41 98 1017.0
20260505205718 55 160 5.0 12.0 0.00 0.41 0.41 98 1017.0
20260505204716 55 136 5.0 12.0 0.00 0.41 0.41 98 1017.0
20260505204214 55 120 5.0 12.0 0.00 0.41 0.41 98 1017.0
20260505203713 55 181 3.0 11.0 0.00 0.41 0.41 98 1017.0
20260505203213 55 160 3.0 10.0 0.00 0.41 0.41 98 1017.2
20260505202707 55 103 4.0 10.0 0.00 0.41 0.41 98 1017.1
20260505202200 55 153 4.0 12.0 0.00 0.41 0.41 98 1017.1
20260505201704 55 155 3.0 12.0 0.00 0.41 0.41 98 1017.2
20260505201202 55 138 3.0 11.0 0.00 0.41 0.41 98 1017.1
20260505200706 55 193 3.0 9.0 0.00 0.41 0.41 98 1017.1
20260505200204 55 182 3.0 9.0 0.00 0.41 0.41 98 1017.1
20260505195704 55 153 3.0 9.0 0.00 0.41 0.41 98 1017.1
20260505195203 55 141 3.0 8.0 0.00 0.41 0.41 98 1017.0
20260505194703 55 148 2.0 7.0 0.00 0.41 0.41 98 1016.9
20260505192701 55 144 3.0 8.0 0.00 0.41 0.41 98 1016.8
20260505192202 55 88 3.0 8.0 0.00 0.41 0.41 98 1016.8
20260505191154 55 191 4.0 13.0 0.00 0.41 0.41 98 1016.6
20260505190656 55 150 4.0 10.0 0.00 0.41 0.41 98 1016.6
20260505190154 55 159 4.0 10.0 0.00 0.41 0.41 98 1016.5
20260505184653 55 147 4.0 10.0 0.00 0.41 0.41 98 1016.5
20260505184155 55 160 4.0 13.0 0.00 0.41 0.41 98 1016.5
20260505183655 55 136 5.0 13.0 0.00 0.41 0.41 98 1016.5
20260505183153 55 200 4.0 13.0 0.00 0.41 0.41 98 1016.5
20260505182653 55 155 4.0 11.0 0.00 0.41 0.41 98 1016.5
20260505182154 55 127 4.0 12.0 0.00 0.41 0.41 98 1016.6
20260505181655 55 134 4.0 12.0 0.00 0.41 0.41 98 1016.7
20260505180655 55 226 2.0 9.0 0.00 0.41 0.41 98 1016.6
20260505180152 55 95 3.0 8.0 0.00 0.41 0.41 98 1016.5
20260505175654 55 222 4.0 16.0 0.00 0.41 0.41 98 1016.5
20260505175153 55 231 4.0 16.0 0.00 0.41 0.41 98 1016.4
20260505174652 55 181 3.0 9.0 0.00 0.41 0.41 98 1016.4
20260505174152 55 188 4.0 13.0 0.00 0.41 0.41 98 1016.5
20260505173651 55 180 5.0 13.0 0.00 0.41 0.41 98 1016.4
20260505173147 55 167 4.0 17.0 0.00 0.41 0.41 98 1016.4
20260505172649 55 123 3.0 17.0 0.00 0.41 0.41 98 1016.2
20260505172149 55 218 4.0 10.0 0.00 0.41 0.41 98 1016.2
20260505171647 55 287 4.0 11.0 0.00 0.41 0.41 98 1016.4
20260505171147 55 146 4.0 12.0 0.00 0.41 0.41 98 1016.4
20260505170650 55 188 4.0 12.0 0.00 0.41 0.41 98 1016.5
20260505170147 55 196 4.0 9.0 0.00 0.41 0.41 98 1016.5
20260505165647 55 194 4.0 12.0 0.00 0.41 0.41 98 1016.5
20260505165146 55 240 4.0 12.0 0.00 0.41 0.41 98 1016.5
20260505164641 56 229 4.0 11.0 0.00 0.41 0.41 98 1016.6
20260505164142 56 179 4.0 11.0 0.00 0.41 0.41 98 1016.6
20260505163641 56 233 4.0 10.0 0.00 0.41 0.41 98 1016.6
20260505163143 56 157 4.0 9.0 0.00 0.41 0.41 98 1016.6
20260505162640 56 203 5.0 13.0 0.00 0.41 0.41 98 1016.6
20260505162140 56 208 5.0 13.0 0.00 0.41 0.41 98 1016.6
20260505161639 56 206 3.0 11.0 0.00 0.41 0.41 98 1016.6
20260505161143 56 94 3.0 11.0 0.00 0.41 0.41 98 1016.7
20260505160642 56 200 4.0 11.0 0.01 0.41 0.41 98 1016.7
20260505160143 56 217 3.0 10.0 0.01 0.41 0.41 98 1016.8
20260505153133 56 242 4.0 12.0 0.01 0.41 0.41 98 1016.8
20260505152628 56 136 3.0 12.0 0.01 0.41 0.41 98 1016.8
20260505152131 56 143 3.0 9.0 0.01 0.41 0.41 98 1016.8
20260505151629 56 154 4.0 13.0 0.01 0.41 0.41 98 1016.8
20260505151129 56 119 4.0 13.0 0.01 0.41 0.41 98 1016.8
20260505150629 56 175 4.0 14.0 0.00 0.40 0.40 98 1016.8
20260505150131 56 224 4.0 14.0 0.00 0.40 0.40 98 1016.8
20260505140621 56 152 1.0 6.0 0.00 0.40 0.40 98 1016.9
20260505140121 56 148 1.0 5.0 0.00 0.40 0.40 98 1016.9
20260505124615 55 150 2.0 8.0 0.07 0.40 0.40 98 1017.2
20260505124115 55 130 3.0 8.0 0.07 0.39 0.39 98 1017.2
20260505123616 55 238 2.0 8.0 0.06 0.39 0.39 98 1017.3
20260505122616 55 120 2.0 7.0 0.06 0.38 0.38 98 1017.5
20260505122115 55 152 3.0 7.0 0.05 0.36 0.37 98 1017.4
20260505121615 55 138 2.0 6.0 0.03 0.35 0.35 98 1017.5
20260505121111 55 150 2.0 6.0 0.02 0.34 0.34 98 1017.6
20260505120610 54 137 2.0 6.0 0.03 0.34 0.34 98 1017.5
20260505120111 54 133 2.0 6.0 0.02 0.33 0.33 98 1017.5
20260505115613 54 191 2.0 6.0 0.02 0.33 0.33 98 1017.5
20260505115111 54 226 2.0 6.0 0.02 0.33 0.33 98 1017.5
20260505114617 54 129 3.0 8.0 0.02 0.33 0.33 98 1017.6
20260505113609 54 171 3.0 10.0 0.02 0.32 0.32 98 1017.5
20260505113109 54 218 3.0 10.0 0.03 0.32 0.32 98 1017.6
20260505112605 54 228 4.0 11.0 0.02 0.31 0.31 98 1017.6
20260505112104 54 172 4.0 11.0 0.03 0.31 0.31 98 1017.5
20260505110602 54 94 5.0 11.0 0.02 0.31 0.31 98 1017.6
20260505102101 53 157 5.0 12.0 0.01 0.28 0.28 98 1017.6
20260505101101 53 231 4.0 10.0 0.01 0.28 0.28 98 1017.7
20260505100600 53 129 4.0 13.0 0.01 0.28 0.28 98 1017.6
20260505100100 53 155 4.0 13.0 0.02 0.28 0.28 98 1017.6
20260505095603 53 100 4.0 10.0 0.02 0.28 0.28 98 1017.6
20260505095101 53 126 4.0 11.0 0.02 0.28 0.28 98 1017.6
20260505094602 53 91 3.0 11.0 0.02 0.28 0.28 98 1017.6
20260505093558 52 161 3.0 11.0 0.03 0.28 0.28 98 1017.6
20260505093058 52 155 3.0 11.0 0.03 0.28 0.28 98 1017.8
20260505092056 52 174 3.0 10.0 0.02 0.28 0.28 98 1017.7
20260505091557 52 137 3.0 9.0 0.02 0.28 0.28 98 1017.7
20260505091055 52 162 4.0 12.0 0.02 0.28 0.28 98 1017.6
20260505090554 52 162 3.0 12.0 0.02 0.28 0.28 98 1017.5
20260505090052 52 160 3.0 8.0 0.02 0.27 0.27 98 1017.5
20260505085055 52 150 2.0 8.0 0.02 0.27 0.27 98 1017.4
20260505084555 52 117 2.0 6.0 0.01 0.26 0.26 98 1017.6
20260505084053 52 135 4.0 8.0 0.01 0.26 0.26 98 1017.5
20260505083552 52 155 4.0 8.0 0.00 0.25 0.25 98 1017.4
20260505083050 52 164 4.0 12.0 0.00 0.25 0.25 98 1017.5
20260505082550 52 134 4.0 12.0 0.00 0.25 0.25 98 1017.4
20260505082050 52 195 4.0 12.0 0.00 0.25 0.25 98 1017.5
20260505081550 52 125 4.0 12.0 0.00 0.25 0.25 98 1017.5
20260505081049 52 192 4.0 11.0 0.00 0.25 0.25 98 1017.5
20260505080550 52 210 5.0 11.0 0.00 0.25 0.25 98 1017.5
20260505075544 52 129 5.0 13.0 0.00 0.25 0.25 98 1017.5
20260505075038 52 169 4.0 12.0 0.00 0.25 0.25 98 1017.5
20260505074540 52 108 4.0 9.0 0.00 0.25 0.25 98 1017.4
20260505073543 52 186 5.0 10.0 0.00 0.25 0.25 98 1017.3
20260505073038 52 188 5.0 10.0 0.00 0.25 0.25 98 1017.3